Location: Proctor
(47.8934°N, 114.3048°W)
Time: 13:38:53
(UTC+00:00)

POLYITAN 1 - Pass Details

Date: 29 June 2022
Orbit: 586 x 605 km, 98.0° (Epoch: 18 August)

Event Time Altitude Azimuth Distance (km) Brightness Sun altitude
Rises 08:59:07 0° 20° (NNE) 2,858 ? -16.7°
Reaches altitude 10° 09:01:24 10° 28° (NNE) 1,954 ? -16.6°
Maximum altitude 09:05:24 40° 98° (E) 895 ? -16.4°
Enters shadow 09:07:50 21° 157° (SSE) 1,382 ? -16.2°
